map of SYQ home
SYQ - Airport
Location
City:  San José, San José, Costa Rica
Near (Alt.):Pavas
Name:Tobías Bolaños International Airport
ICAO:MRPV
IATA:SYQ

Details
Type:Airport (Aerodrome, Airfield)
Use:Public/Civil, International (customs port of entry)
Latitude:9°57'26"N (9.957222)
Longitude:84°08'34"W (-84.142777)
Elevation:3287 ft (1002 m)
Variation:1.78°W (WMM2015 magnetic declination)
-0.15° annual change
Runways:1
Longest:5249 × 59 ft (1600 × 18 m)

Time
Time Zone:UTC-6
Local Time:

Weather
METAR:MRPV 231400Z 09017KT 9999 FEW040 21/11 A3015 NOSIG
TAF:MRPV 230500Z 2306/2406 10015KT 9999 FEW030 TX28/2319Z TN19/2310Z

Related Locations
Nearby:
Farthest:CCK: 12265 mi / 19739 km
West Island (Pulau Panjang) [Cocos (Keeling) Islands], CC

Find:

   beyond  
but within

Other Information
Maps:
NOTAMs:
Links:
Sources:

  
flag of Costa Rica
flag of San José
flag of San José
  

Sectional Chart

Flight Planning
at skyvector.com

Satellite Image

Google Maps Satellite view

 

Copyright © 2004-2018 Karl L. Swartz. All rights reserved.
The Great Circle Mapper name and logo are trademarks of the Great Circle Mapper.
All other trademarks mentioned herein belong to their respective owners.
Please see credits for attibutions and further copyright information.

  Follow gcmap on Facebook Follow gcmap on Twitter Follow gcmap on Google+ GCmap on LinkedIn

hCard Microformat

Geo Microformat